EW3101 Weather Reports


time (UTC)temp
F
wind
direction
speed
knots
gust
knots
rain 1hr
in
rain 24hr
in
rain mn
in
humidity
%
barometer
mb
20260507180217 68 180 12.2 15.6 0.00 0.00 0.00 42 1013.8
20260507175237 67 135 13.9 21.7 0.00 0.00 0.00 42 1013.9
20260507174216 67 135 11.3 15.6 0.00 0.00 0.00 47 1014.0
20260507173217 66 135 13.9 20.9 0.00 0.00 0.00 46 1014.2
20260507172216 66 135 14.8 18.2 0.00 0.00 0.00 47 1014.5
20260507171217 65 135 16.5 22.6 0.00 0.00 0.00 46 1014.8
20260507170216 64 135 12.2 16.5 0.00 0.00 0.00 48 1014.8
20260507165217 64 135 13.9 19.1 0.00 0.00 0.00 49 1014.9
20260507164217 63 135 13.0 18.2 0.00 0.00 0.00 50 1014.8
20260507163236 63 135 11.3 14.8 0.00 0.00 0.00 51 1014.7
20260507162216 63 135 12.2 20.0 0.00 0.00 0.00 52 1014.9
20260507161257 62 158 8.7 16.5 0.00 0.00 0.00 53 1015.1
20260507160216 61 158 11.3 16.5 0.00 0.00 0.00 54 1015.1
20260507155216 61 158 8.7 13.0 0.00 0.00 0.00 55 1015.2
20260507154217 60 135 13.9 25.2 0.00 0.00 0.00 54 1015.0
20260507153216 60 135 11.3 16.5 0.00 0.00 0.00 57 1015.0
20260507152216 59 158 8.7 10.4 0.00 0.00 0.00 59 1015.2
20260507151216 58 135 12.2 18.2 0.00 0.00 0.00 61 1015.3
20260507150216 58 135 11.3 22.6 0.00 0.00 0.00 61 1015.7
20260507145216 57 158 9.6 16.5 0.00 0.00 0.00 62 1015.8
20260507144216 56 158 7.8 10.4 0.00 0.00 0.00 65 1015.9
20260507143236 56 135 7.8 11.3 0.00 0.00 0.00 67 1016.0
20260507142216 55 135 13.9 18.2 0.00 0.00 0.00 67 1015.9
20260507141236 55 158 10.4 15.6 0.00 0.00 0.00 69 1015.9
20260507140216 54 158 7.8 12.2 0.00 0.00 0.00 71 1016.1
20260507135216 53 225 7.0 9.6 0.00 0.00 0.00 72 1015.9
20260507134216 52 225 7.0 10.4 0.00 0.00 0.00 75 1016.3
20260507133236 51 203 8.7 11.3 0.00 0.00 0.00 76 1016.0
20260507132216 51 225 7.0 8.7 0.00 0.00 0.00 77 1016.0
20260507131216 50 203 7.0 8.7 0.00 0.00 0.00 78 1016.1
20260507130216 49 225 7.0 9.6 0.00 0.00 0.00 78 1016.2
20260507125216 49 203 5.2 7.0 0.00 0.00 0.00 80 1016.0
20260507124216 48 225 5.2 7.8 0.00 0.00 0.00 80 1015.9
20260507123216 47 203 6.1 8.7 0.00 0.00 0.00 81 1016.0
20260507122216 47 225 5.2 7.0 0.00 0.00 0.00 82 1016.0
20260507121216 46 225 6.1 7.8 0.00 0.00 0.00 83 1016.1
20260507120216 46 0 5.2 7.8 0.00 0.00 0.00 83 1016.2
20260507115236 46 0 4.3 7.8 0.00 0.00 0.00 83 1016.1
20260507114236 45 0 3.5 3.5 0.00 0.00 0.00 83 1016.1
20260507113236 45 0 3.5 5.2 0.00 0.00 0.00 83 1016.2
20260507112216 45 0 3.5 4.3 0.00 0.00 0.00 83 1016.2
20260507111216 45 0 6.1 8.7 0.00 0.00 0.00 83 1016.1
20260507110216 45 0 5.2 8.7 0.00 0.00 0.00 83 1016.1
20260507105216 45 0 4.3 5.2 0.00 0.00 0.00 83 1016.1
20260507104236 45 0 4.3 5.2 0.00 0.00 0.00 83 1016.0
20260507103215 45 0 3.5 4.3 0.00 0.00 0.00 82 1016.1
20260507102216 45 0 2.6 4.3 0.00 0.00 0.00 82 1016.1
20260507101216 45 0 2.6 3.5 0.00 0.00 0.00 81 1016.1
20260507100215 45 0 2.6 3.5 0.00 0.00 0.00 81 1016.1
20260507095216 45 0 3.5 4.3 0.00 0.00 0.00 81 1016.3
20260507094215 45 0 2.6 4.3 0.00 0.00 0.00 80 1016.5
20260507093215 45 0 3.5 5.2 0.00 0.00 0.00 80 1016.5
20260507092215 45 0 2.6 3.5 0.00 0.00 0.00 79 1016.5
20260507091215 45 0 2.6 3.5 0.00 0.00 0.00 79 1016.5
20260507090215 46 0 2.6 4.3 0.00 0.00 0.00 79 1016.6
20260507085215 46 0 3.5 4.3 0.00 0.00 0.00 78 1016.7
20260507084215 46 0 2.6 3.5 0.00 0.00 0.00 77 1016.8
20260507083255 46 0 2.6 2.6 0.00 0.00 0.00 77 1016.8
20260507082215 46 0 3.5 4.3 0.00 0.00 0.00 76 1016.9
20260507081215 46 0 1.7 2.6 0.00 0.00 0.00 76 1016.8
20260507080217 47 0 2.6 4.3 0.00 0.00 0.00 75 1016.8
20260507075217 47 0 2.6 3.5 0.00 0.00 0.00 75 1016.9
20260507074217 47 0 2.6 3.5 0.00 0.00 0.00 75 1016.9
20260507073237 47 0 1.7 3.5 0.00 0.00 0.00 74 1017.1
20260507072217 47 0 1.7 3.5 0.00 0.00 0.00 73 1017.2
20260507071217 48 0 1.7 3.5 0.00 0.00 0.00 73 1017.1
20260507070217 48 0 2.6 3.5 0.00 0.00 0.00 72 1017.4
20260507065217 48 0 2.6 4.3 0.00 0.00 0.00 72 1017.4
20260507064217 48 0 2.6 3.5 0.00 0.00 0.00 71 1017.5
20260507063217 48 0 2.6 3.5 0.00 0.00 0.00 71 1017.6
20260507062217 49 0 2.6 3.5 0.00 0.00 0.00 70 1017.5
20260507061217 49 0 2.6 4.3 0.00 0.00 0.00 69 1017.4
20260507060217 49 0 2.6 3.5 0.00 0.00 0.00 68 1017.4
20260507055217 50 0 2.6 3.5 0.00 0.00 0.00 67 1017.7
20260507054217 50 0 3.5 4.3 0.00 0.00 0.00 66 1017.7
20260507053217 50 248 3.5 4.3 0.00 0.00 0.00 65 1017.8
20260507052217 51 225 1.7 3.5 0.00 0.00 0.00 64 1017.8
20260507051217 51 225 2.6 7.0 0.00 0.00 0.00 63 1017.8
20260507050237 51 0 2.6 3.5 0.00 0.00 0.00 62 1017.6
20260507045236 51 0 3.5 5.2 0.00 0.00 0.00 61 1017.6
20260507044215 50 0 2.6 3.5 0.00 0.00 0.00 60 1017.5
20260507043215 50 0 2.6 4.3 0.00 0.00 0.00 61 1017.4
20260507042215 50 0 3.5 4.3 0.00 0.00 0.00 63 1017.7
20260507041215 49 0 2.6 2.6 0.00 0.00 0.00 64 1017.7
20260507040215 48 0 2.6 2.6 0.00 0.00 0.00 67 1017.7
20260507035235 48 0 1.7 2.6 0.00 0.00 0.00 69 1017.8
20260507034215 47 0 0.9 1.7 0.00 0.00 0.00 69 1017.5
20260507033215 47 0 1.7 1.7 0.00 0.00 0.00 71 1017.7
20260507032216 47 0 1.7 1.7 0.00 0.00 0.00 70 1017.6
20260507031237 47 0 0.9 1.7 0.00 0.00 0.00 70 1017.6
20260507030217 48 0 1.7 2.6 0.00 0.00 0.00 70 1017.6
20260507025217 48 0 0.9 1.7 0.00 0.00 0.00 67 1017.5
20260507024237 49 0 0.9 1.7 0.00 0.00 0.00 65 1017.5
20260507023217 50 0 1.7 2.6 0.00 0.00 0.00 63 1017.1
20260507022217 51 0 1.7 1.7 0.00 0.00 0.00 59 1017.1
20260507021217 53 0.0 0.0 0.00 0.00 0.00 55 1017.2
20260507020217 54 0.0 0.0 0.00 0.00 0.00 53 1017.0
20260507015217 55 0.0 0.0 0.00 0.00 0.00 48 1017.2
20260507014218 55 0.0 0.9 0.00 0.00 0.00 44 1017.0
20260507013217 57 293 0.9 1.7 0.00 0.00 0.00 43 1017.3
20260507012217 58 0.0 0.9 0.00 0.00 0.00 42 1017.3
20260507011217 59 338 0.9 0.9 0.00 0.00 0.00 37 1017.3
20260507010237 60 0.0 0.9 0.00 0.00 0.00 36 1017.2
20260507005217 61 23 0.9 2.6 0.00 0.00 0.00 35 1017.4
20260507004237 61 23 0.9 1.7 0.00 0.00 0.00 36 1017.5
20260507003217 61 23 0.9 1.7 0.00 0.00 0.00 32 1017.4
20260507002237 61 23 0.9 1.7 0.00 0.00 0.00 34 1017.4
20260507001217 60 23 0.9 1.7 0.00 0.00 0.00 32 1017.4
20260507000219 61 0 1.7 2.6 0.00 0.00 0.00 33 1017.6
20260506235217 61 0 3.5 5.2 0.00 0.00 0.00 32 1017.5
20260506234217 61 293 3.5 6.1 0.00 0.00 0.00 32 1017.5
20260506233217 61 270 5.2 8.7 0.00 0.00 0.00 32 1017.4
20260506232237 61 315 3.5 7.0 0.00 0.00 0.00 31 1017.6
20260506231217 61 338 6.1 8.7 0.00 0.00 0.00 34 1017.5
20260506230217 62 293 4.3 7.0 0.00 0.00 0.00 30 1017.7
20260506225217 62 0 4.3 8.7 0.00 0.00 0.00 31 1017.7
20260506224216 62 0 3.5 7.0 0.00 0.00 0.00 32 1017.6
20260506223216 62 293 4.3 7.0 0.00 0.00 0.00 32 1017.6
20260506222216 61 293 2.6 4.3 0.00 0.00 0.00 33 1017.6
20260506221217 60 0.0 0.9 0.00 0.00 0.00 33 1017.8
20260506220216 60 338 2.6 4.3 0.00 0.00 0.00 35 1017.9
20260506215216 59 23 2.6 3.5 0.00 0.00 0.00 39 1017.9
20260506214217 59 315 5.2 7.8 0.00 0.00 0.00 36 1017.9
20260506213216 60 23 4.3 7.0 0.00 0.00 0.00 36 1018.1
20260506212217 61 0 7.8 9.6 0.00 0.00 0.00 35 1018.3
20260506211217 63 23 3.5 7.0 0.00 0.00 0.00 32 1018.5
20260506210216 61 90 0.9 2.6 0.00 0.00 0.00 32 1018.5
20260506205216 61 315 4.3 8.7 0.00 0.00 0.00 34 1018.7
20260506204216 61 315 3.5 4.3 0.00 0.00 0.00 32 1018.9
20260506203236 62 338 3.5 5.2 0.00 0.00 0.00 29 1019.0
20260506202216 62 45 0.9 1.7 0.00 0.00 0.00 37 1019.1
20260506201216 60 270 1.7 2.6 0.00 0.00 0.00 35 1019.3
20260506200216 61 180 6.1 9.6 0.00 0.00 0.00 36 1019.6
20260506195216 59 203 4.3 6.1 0.00 0.00 0.00 40 1019.4
20260506194236 59 23 7.0 9.6 0.00 0.00 0.00 35 1019.5
20260506193216 59 23 1.7 3.5 0.00 0.00 0.00 39 1019.6
20260506192216 59 23 7.8 12.2 0.00 0.00 0.00 35 1019.9
20260506191216 59 225 3.5 8.7 0.00 0.00 0.00 34 1019.6
20260506190216 58 180 4.3 6.1 0.00 0.00 0.00 36 1019.8
20260506185236 57 23 3.5 5.2 0.00 0.00 0.00 33 1019.6
20260506184216 58 225 7.8 12.2 0.00 0.00 0.00 36 1019.6
20260506183216 58 203 2.6 4.3 0.00 0.00 0.00 36 1019.8
20260506182216 57 203 4.3 5.2 0.00 0.00 0.00 38 1019.7
20260506181216 58 0 2.6 3.5 0.00 0.00 0.00 34 1019.8